TimeEDT,TemperatureF,Dew PointF,Humidity,Sea Level PressureIn,VisibilityMPH,Wind Direction,Wind SpeedMPH,Gust SpeedMPH,PrecipitationIn,Events,Conditions,WindDirDegrees,DateUTC
12:15 AM,64.4,51.8,64,29.95,10.0,East,10.4,-,N/A,,Overcast,80,2013-06-10 04:15:00
12:35 AM,62.6,51.8,68,29.95,10.0,East,11.5,-,N/A,,Overcast,80,2013-06-10 04:35:00
12:55 AM,62.6,51.8,68,29.95,10.0,East,9.2,-,N/A,,Overcast,80,2013-06-10 04:55:00
1:15 AM,62.6,51.8,68,29.95,10.0,ENE,5.8,-,N/A,,Overcast,70,2013-06-10 05:15:00
1:35 AM,62.6,51.8,68,29.94,10.0,East,6.9,-,N/A,,Overcast,80,2013-06-10 05:35:00
1:55 AM,62.6,50.0,63,29.94,10.0,ENE,8.1,-,N/A,,Overcast,70,2013-06-10 05:55:00
2:15 AM,60.8,50.0,68,29.94,10.0,ENE,6.9,-,N/A,,Overcast,70,2013-06-10 06:15:00
2:35 AM,60.8,48.2,63,29.93,10.0,ENE,6.9,-,N/A,,Overcast,70,2013-06-10 06:35:00
2:55 AM,60.8,48.2,63,29.92,10.0,East,9.2,-,N/A,,Overcast,80,2013-06-10 06:55:00
3:15 AM,60.8,48.2,63,29.91,10.0,East,9.2,-,N/A,,Overcast,80,2013-06-10 07:15:00
3:35 AM,60.8,48.2,63,29.91,10.0,East,10.4,-,N/A,,Mostly Cloudy,90,2013-06-10 07:35:00
3:55 AM,60.8,48.2,63,29.91,10.0,East,8.1,-,N/A,,Mostly Cloudy,90,2013-06-10 07:55:00
4:15 AM,59.0,48.2,67,29.90,10.0,ENE,8.1,-,N/A,,Partly Cloudy,70,2013-06-10 08:15:00
4:35 AM,59.0,48.2,67,29.90,10.0,ENE,6.9,-,N/A,,Clear,60,2013-06-10 08:35:00
4:55 AM,59.0,48.2,67,29.90,10.0,ENE,6.9,-,N/A,,Clear,70,2013-06-10 08:55:00
5:15 AM,57.2,46.4,67,29.89,10.0,NNE,5.8,-,N/A,,Clear,30,2013-06-10 09:15:00
5:35 AM,57.2,48.2,72,29.89,10.0,ENE,9.2,-,N/A,,Partly Cloudy,70,2013-06-10 09:35:00
5:55 AM,59.0,48.2,67,29.89,10.0,ENE,6.9,-,N/A,,Mostly Cloudy,70,2013-06-10 09:55:00
6:15 AM,59.0,48.2,67,29.88,10.0,East,6.9,-,N/A,,Scattered Clouds,80,2013-06-10 10:15:00
6:35 AM,57.2,48.2,72,29.89,10.0,East,5.8,-,N/A,,Clear,80,2013-06-10 10:35:00
6:55 AM,57.2,48.2,72,29.89,10.0,NE,4.6,-,N/A,,Clear,40,2013-06-10 10:55:00
7:15 AM,57.2,48.2,72,29.89,10.0,NE,3.5,-,N/A,,Clear,50,2013-06-10 11:15:00
7:35 AM,59.0,48.2,67,29.88,10.0,ENE,5.8,-,N/A,,Clear,70,2013-06-10 11:35:00
7:55 AM,59.0,48.2,67,29.88,10.0,East,6.9,-,N/A,,Clear,80,2013-06-10 11:55:00
8:15 AM,60.8,48.2,63,29.88,10.0,East,6.9,-,N/A,,Clear,80,2013-06-10 12:15:00
8:35 AM,60.8,48.2,63,29.88,10.0,ENE,8.1,-,N/A,,Clear,60,2013-06-10 12:35:00
8:55 AM,60.8,48.2,63,29.87,10.0,ENE,9.2,-,N/A,,Clear,70,2013-06-10 12:55:00
9:15 AM,62.6,50.0,63,29.88,10.0,ENE,6.9,-,N/A,,Clear,70,2013-06-10 13:15:00
9:35 AM,62.6,50.0,63,29.88,10.0,East,5.8,-,N/A,,Clear,80,2013-06-10 13:35:00
9:55 AM,62.6,50.0,63,29.87,10.0,East,6.9,-,N/A,,Partly Cloudy,80,2013-06-10 13:55:00
10:15 AM,64.4,50.0,59,29.87,10.0,ENE,8.1,-,N/A,,Mostly Cloudy,70,2013-06-10 14:15:00
10:35 AM,64.4,51.8,64,29.87,10.0,ESE,8.1,-,N/A,,Mostly Cloudy,120,2013-06-10 14:35:00
10:55 AM,64.4,51.8,64,29.87,10.0,East,10.4,-,N/A,,Mostly Cloudy,100,2013-06-10 14:55:00
11:15 AM,64.4,51.8,64,29.87,10.0,ESE,9.2,-,N/A,,Overcast,110,2013-06-10 15:15:00
11:35 AM,64.4,51.8,64,29.87,10.0,East,6.9,-,N/A,,Mostly Cloudy,100,2013-06-10 15:35:00
11:55 AM,64.4,51.8,64,29.87,10.0,ESE,10.4,-,N/A,,Mostly Cloudy,110,2013-06-10 15:55:00
12:15 PM,66.2,51.8,60,29.87,10.0,ESE,10.4,-,N/A,,Scattered Clouds,110,2013-06-10 16:15:00
12:35 PM,66.2,51.8,60,29.87,10.0,East,9.2,-,N/A,,Scattered Clouds,90,2013-06-10 16:35:00
12:55 PM,66.2,51.8,60,29.87,10.0,East,6.9,-,N/A,,Partly Cloudy,90,2013-06-10 16:55:00
1:15 PM,66.2,51.8,60,29.87,10.0,SE,11.5,-,N/A,,Clear,140,2013-06-10 17:15:00
1:35 PM,66.2,53.6,64,29.86,10.0,SE,10.4,-,N/A,,Clear,130,2013-06-10 17:35:00
1:55 PM,64.4,53.6,68,29.85,10.0,SE,10.4,-,N/A,,Clear,130,2013-06-10 17:55:00
2:15 PM,66.2,53.6,64,29.85,10.0,SSE,6.9,-,N/A,,Clear,150,2013-06-10 18:15:00
2:35 PM,66.2,55.4,68,29.83,10.0,South,5.8,-,N/A,,Clear,170,2013-06-10 18:35:00
2:55 PM,68.0,53.6,60,29.83,10.0,South,6.9,-,N/A,,Clear,180,2013-06-10 18:55:00
3:15 PM,68.0,53.6,60,29.83,10.0,SSE,9.2,-,N/A,,Partly Cloudy,150,2013-06-10 19:15:00
3:35 PM,66.2,53.6,64,29.83,10.0,SSE,8.1,-,N/A,,Scattered Clouds,160,2013-06-10 19:35:00
3:55 PM,64.4,53.6,68,29.83,10.0,SSE,8.1,-,N/A,,Partly Cloudy,150,2013-06-10 19:55:00
4:15 PM,64.4,53.6,68,29.83,10.0,SE,10.4,-,N/A,,Clear,140,2013-06-10 20:15:00
4:35 PM,64.4,55.4,73,29.83,10.0,SE,10.4,-,N/A,,Clear,130,2013-06-10 20:35:00
4:55 PM,64.4,55.4,73,29.83,10.0,SSE,10.4,-,N/A,,Clear,150,2013-06-10 20:55:00
5:15 PM,64.4,55.4,73,29.83,10.0,SSE,9.2,-,N/A,,Clear,150,2013-06-10 21:15:00
5:35 PM,66.2,55.4,68,29.82,10.0,SE,10.4,-,N/A,,Clear,140,2013-06-10 21:35:00
5:55 PM,66.2,53.6,64,29.83,10.0,SSE,8.1,-,N/A,,Clear,160,2013-06-10 21:55:00
6:15 PM,66.2,53.6,64,29.83,10.0,SSE,8.1,-,N/A,,Clear,150,2013-06-10 22:15:00
6:35 PM,66.2,53.6,64,29.83,10.0,SSE,8.1,-,N/A,,Clear,160,2013-06-10 22:35:00
6:55 PM,66.2,53.6,64,29.83,10.0,SSE,6.9,-,N/A,,Clear,150,2013-06-10 22:55:00
7:15 PM,64.4,51.8,64,29.83,10.0,SSE,8.1,-,N/A,,Clear,150,2013-06-10 23:15:00
7:35 PM,64.4,51.8,64,29.83,10.0,SE,6.9,-,N/A,,Clear,140,2013-06-10 23:35:00
7:55 PM,62.6,51.8,68,29.83,10.0,South,3.5,-,N/A,,Clear,170,2013-06-10 23:55:00
8:15 PM,62.6,51.8,68,29.83,10.0,SSE,5.8,-,N/A,,Clear,150,2013-06-11 00:15:00
8:35 PM,62.6,51.8,68,29.84,10.0,Calm,Calm,-,N/A,,Clear,0,2013-06-11 00:35:00
8:55 PM,60.8,51.8,72,29.84,10.0,SE,3.5,-,N/A,,Scattered Clouds,130,2013-06-11 00:55:00
9:15 PM,60.8,51.8,72,29.84,10.0,Calm,Calm,-,N/A,,Scattered Clouds,0,2013-06-11 01:15:00
9:35 PM,60.8,53.6,77,29.84,10.0,East,5.8,-,N/A,,Partly Cloudy,100,2013-06-11 01:35:00
9:55 PM,60.8,53.6,77,29.85,10.0,ESE,4.6,-,N/A,,Clear,110,2013-06-11 01:55:00
10:15 PM,60.8,53.6,77,29.85,10.0,East,5.8,-,N/A,,Clear,90,2013-06-11 02:15:00
10:35 PM,59.0,53.6,82,29.86,10.0,ESE,5.8,-,N/A,,Clear,110,2013-06-11 02:35:00
10:55 PM,59.0,53.6,82,29.86,10.0,ESE,5.8,-,N/A,,Clear,110,2013-06-11 02:55:00
11:15 PM,57.2,53.6,88,29.86,10.0,ESE,5.8,-,N/A,,Clear,110,2013-06-11 03:15:00
11:35 PM,57.2,53.6,88,29.87,10.0,Calm,Calm,-,N/A,,Clear,0,2013-06-11 03:35:00
11:55 PM,57.2,51.8,82,29.86,9.0,East,4.6,-,N/A,,Clear,90,2013-06-11 03:55:00